Location: Morosaglia
(42.4360°N, 9.3069°E)
Time: 19:17:15
(UTC+00:00)

Cosmos 2263 Rocket - Pass Details

Date: 07 June 2020
Orbit: 825 x 847 km, 71.0° (Epoch: 02 July)

Event Time Altitude Azimuth Distance (km) Brightness Sun altitude
Rises 01:04:11 0° 335° (NNW) 3,386 5.9 -20.6°
Reaches altitude 10° 01:06:38 10° 335° (NNW) 2,445 5.1 -20.4°
Maximum altitude 01:12:15 88° 250° (WSW) 834 2.1 -20.0°
Enters shadow 01:15:53 23° 159° (SSE) 1,704 3.4 -19.7°
